Presure
105 110 108 107 118 169 169 191 183 192 189 195 202 218 217 233 232 219 216 210 214 220 216 208 204 198 197 193 192 115 204 231 227 218 218 219 221 217
109 109 109 169 181 188 189 188 194 204 185 201 207 218 224 232 225 219 214 214 212 207 207 205 197 198 191 193 189 192 188 194 199 223 225 225 224 223
111 161 186 184 191 188 194 182 206 194 202 216 215 219 227 232 222 220 216 208 213 210 223 196 194 192 185 182 180 184 201 204 188 185 188 197 208 215
177 156 176 192 178 186 191 205 205 210 215 215 215 203 187 175 171 195 213 167 203 206 171 172 178 176 175 180 177 187 192 188 202 189 185 197 184 186
188 192 196 195 197 202 193 203 212 208 214 163 168 176 182 185 183 184 176 177 178 181 181 178 185 188 185 182 184 179 183 200 192 177 248 240 218 212
215 208 204 207 180 201 192 182 209 205 172 174 164 173 173 172 181 176 172 175 176 177 180 171 177 172 180 182 183 200 189 207 197 202 224 244 241 236
195 203 197 211 162 204 177 155 141 124 176 177 177 173 180 181 185 178 167 169 186 190 193 190 188 196 198 201 208 204 228 213 207 206 223 224 223 251
170 168 148 127 177 170 169 128 172 122 168 172 178 176 171 177 179 177 168 161 169 168 195 201 205 204 198 194 193 221 220 207 204 227 226 232 230 218
176 178 178 125 132 158 172 173 138 178 177 171 163 177 179 177 168 172 182 181 188 183 175 219 205 213 206 220 221 211 192 183 213 225 225 221 228 231
177 172 176 175 173 178 177 144 177 172 178 181 185 185 186 191 197 195 201 201 206 199 186 206 210 211 206 198 187 182 180 199 230 225 218 215 205 210
184 183 184 188 186 186 188 182 183 178 189 189 179 179 182 184 184 197 198 200 200 199 204 212 201 194 188 193 202 193 194 227 227 218 217 205 202 196
189 189 187 175 190 188 188 189 188 190 196 185 187 189 195 197 194 192 196 196 191 189 191 210 197 190 188 191 190 187 225 225 216 205 204 211 207 203
193 190 190 190 188 188 185 189 197 183 181 187 186 188 193 190 190 196 194 202 210 205 196 196 192 185 206 227 208 213 222 214 208 200 198 202 203 192
186 193 125 177 198 199 193 188 192 192 189 182 183 188 189 189 196 199 206 191 189 190 188 190 200 207 224 222 224 210 208 204 202 194 202 200 195 194
199 194 192 192 192 192 192 191 191 193 194 193 191 192 190 193 195 195 196 197 198 206 213 219 214 212 197 206 208 209 201 198 191 182 180 197 196 194
192 192 195 193 192 188 186 189 190 192 193 194 192 191 193 196 199 203 206 212 216 217 195 193 192 194 193 187 187 189 190 189 187 187 182 185 188 183
202 197 200 202 202 202 201 195 194 193 195 198 202 210 213 214 202 193 195 199 197 193 190 193 190 191 191 200 195 191 198 190 189 191 188 190 190 190
193 205 209 217 216 216 215 214 215 215 210 206 200 194 191 187 191 190 184 184 184 184 189 190 191 191 190 187 191 198 197 190 199 192 206 196 194 199
189 181 182 173 170 169 168 176 180 182 183 187 187 189 174 176 185 185 186 177 188 182 180 185 185 188 187 184 194 193 206 192 189 187 188 185 185 188
182 193 183 184 184 184 182 185 186 188 192 190 182 180 182 182 182 182 185 182 183 186 182 185 185 194 195 196 207 185 186 196 203 196 202 179 191 196
195 197 194 187 197 199 198 198 191 196 195 195 197 197 197 197 182 181 197 201 180 188 180 193 201 197 193 191 189 190 189 195 188 184 195 202 194 132
207 198 200 203 199 187 182 186 186 191 187 184 191 197 200 208 189 193 202 194 191 200 191 193 192 205 214 209 195 203 197 191 193 207 193 194 202 206
195 198 204 207 209 200 194 205 205 200 204 205 209 203 206 196 196 204 204 203 205 199 191 211 214 213 191 209 196 217 220 199 184 206 226 217 215 226
Wind_Speed
67 71 70 70 72 60 62 78 74 77 74 75 73 66 62 56 48 46 44 47 46 43 40 40 39 38 39 37 38 32 36 32 34 36 37 38 38 39
73 76 77 64 78 82 81 78 80 76 72 77 67 60 60 51 46 44 44 43 44 42 42 40 40 39 39 39 39 39 39 39 37 35 36 38 38 39
81 82 84 80 85 82 83 73 78 79 79 71 59 58 58 53 46 43 41 43 43 43 42 41 42 41 40 41 42 41 42 41 41 40 39 40 41 41
78 70 75 84 73 82 84 83 79 76 69 64 59 54 49 50 51 48 43 49 43 43 46 45 45 45 44 45 45 47 46 45 45 43 44 44 44 43
86 87 87 85 80 79 83 83 72 71 66 63 60 56 53 51 50 48 54 54 52 50 50 52 52 51 50 51 51 51 51 49 48 48 43 44 47 48
83 86 86 84 78 78 77 71 73 69 65 65 66 63 61 59 55 55 57 57 58 56 53 55 56 53 54 55 55 54 55 53 52 51 48 44 45 47
81 82 82 83 75 78 74 72 69 70 70 69 69 69 65 62 59 60 60 61 60 61 61 58 60 60 59 58 56 56 50 52 54 53 49 48 49 44
84 84 81 80 79 79 78 79 75 71 74 74 73 73 73 70 67 65 64 68 67 62 62 61 59 59 58 60 60 56 50 53 55 51 49 45 44 47
87 87 86 80 75 83 82 81 81 81 80 78 78 78 77 75 72 71 69 70 68 68 67 62 60 62 59 58 55 56 58 61 56 51 48 47 43 40
92 91 90 89 88 86 87 81 85 85 85 83 80 78 79 78 75 75 73 69 69 70 67 61 63 58 58 60 65 65 66 61 51 50 49 48 51 48
95 94 92 91 92 90 87 88 87 88 87 85 84 84 83 82 83 77 74 71 70 70 70 62 65 66 68 65 62 65 64 56 51 51 49 54 55 58
99 99 97 96 95 93 91 90 90 89 86 88 86 86 86 83 80 77 78 74 72 75 77 68 66 69 69 71 68 68 59 56 54 56 56 52 54 55
104 103 101 100 98 96 93 92 92 91 92 91 90 89 90 87 85 83 81 77 75 75 76 73 73 74 70 66 68 64 60 58 60 61 61 58 56 61
105 104 60 91 102 98 95 95 96 95 95 92 92 94 94 94 91 86 84 81 81 78 79 79 76 74 70 65 63 66 64 63 62 64 62 62 64 64
110 107 106 105 104 103 102 100 98 98 98 98 97 97 96 95 93 91 88 87 84 82 81 79 74 72 72 69 67 66 68 67 71 73 74 68 69 70
109 110 111 110 107 104 102 101 101 102 101 100 99 100 100 99 97 95 93 90 86 82 80 79 79 77 75 75 75 75 76 77 78 76 78 77 75 78
115 113 113 113 112 111 108 106 106 106 103 103 103 103 102 101 97 93 91 88 83 82 84 83 82 81 80 79 79 81 80 81 83 83 81 82 83 83
111 114 116 116 116 116 115 112 111 109 107 103 101 100 100 100 98 95 93 91 87 87 87 88 88 86 85 84 84 83 83 86 85 86 85 86 88 89
115 113 113 111 106 103 101 106 106 106 104 104 103 101 100 102 100 99 99 98 95 92 94 94 93 95 93 91 92 91 89 90 91 92 92 91 93 95
120 119 119 118 117 116 114 113 111 112 112 110 107 107 106 105 105 105 104 103 102 101 100 100 100 101 99 96 92 96 100 97 98 97 96 96 99 98
125 123 122 120 121 120 119 119 116 118 117 116 115 115 114 113 109 110 111 110 107 108 104 106 105 105 107 105 103 102 103 103 105 106 106 104 103 62
130 128 125 124 124 119 116 120 121 120 121 120 118 120 119 120 117 117 117 115 116 115 112 112 114 115 113 114 110 107 108 111 110 110 112 114 105 110
132 132 131 129 129 128 127 128 126 126 126 124 127 122 126 123 123 121 121 123 121 119 118 117 117 120 115 114 116 117 115 112 117 117 123 122 121 123
Wind_Direction
272 276 279 282 282 276 277 281 284 286 289 292 296 298 297 301 300 297 297 299 301 302 300 301 303 306 308 309 310 310 312 313 308 306 304 303 301 301
274 276 278 270 272 274 277 280 282 286 287 291 293 294 299 299 297 297 295 296 297 296 297 298 302 304 306 306 306 306 306 307 308 307 305 303 302 301
271 266 264 268 270 273 275 278 281 285 287 290 290 294 299 297 295 295 292 293 294 293 294 298 300 302 303 303 302 303 306 306 304 305 305 304 304 302
263 259 266 267 271 274 275 277 280 282 285 286 288 289 290 289 290 294 294 292 291 290 301 301 301 301 301 301 301 302 301 301 303 301 301 301 301 302
261 263 265 268 270 270 274 276 277 280 282 280 282 284 287 289 290 290 291 294 296 297 298 298 297 299 300 300 300 299 299 301 301 299 302 300 299 300
255 259 262 263 266 268 272 272 275 276 278 280 282 282 282 283 287 287 289 293 294 294 294 295 296 296 297 296 297 298 298 300 299 301 303 302 299 299
259 260 262 263 268 268 271 273 278 279 278 279 281 282 283 284 285 286 286 288 289 291 291 292 292 293 295 295 296 297 300 299 299 300 301 301 300 299
258 261 263 265 265 269 271 273 275 279 276 278 280 281 281 282 284 284 285 285 288 288 291 291 291 291 293 294 295 296 296 297 298 301 301 302 303 301
257 259 261 266 269 268 270 271 274 273 275 276 277 280 281 282 282 284 286 286 287 288 290 294 291 292 292 293 294 294 295 297 298 298 299 301 302 304
257 259 261 263 265 265 268 271 270 272 274 275 277 279 280 282 283 284 287 290 290 288 287 291 291 290 289 289 290 292 294 295 295 294 294 295 296 298
257 259 260 260 262 264 265 267 269 270 272 275 275 277 278 280 281 284 286 286 288 289 289 289 287 287 287 287 288 290 291 293 292 291 290 291 292 293
257 258 260 262 262 264 265 267 268 270 274 273 276 278 278 279 281 282 282 283 284 283 284 288 285 284 286 287 288 289 291 290 288 289 290 289 290 290
257 259 260 261 262 263 264 267 270 268 270 273 276 278 279 280 280 279 280 283 286 285 284 285 284 283 289 291 291 292 289 288 289 290 290 289 288 288
258 261 258 263 265 266 267 267 268 269 271 273 276 277 277 277 278 279 281 279 279 280 281 283 285 289 290 289 288 289 289 288 288 288 290 289 288 288
258 260 262 263 264 265 266 268 269 271 271 271 272 273 275 277 278 278 278 279 281 282 284 285 286 286 287 289 290 289 287 286 285 287 289 289 289 289
258 260 261 262 263 264 265 267 267 268 269 271 272 273 273 274 275 276 277 279 281 282 282 282 283 284 286 286 287 287 286 285 284 285 287 287 287 286
258 260 261 262 263 264 265 265 266 266 267 268 269 270 271 272 273 275 277 279 281 281 282 283 282 283 284 286 285 285 284 284 285 286 286 286 285 285
258 258 258 259 261 263 264 264 265 266 267 267 267 268 269 271 274 276 276 277 278 280 281 281 282 282 280 280 281 282 282 282 284 283 284 283 285 286
255 256 258 260 261 263 265 264 264 265 266 267 267 268 268 269 272 274 275 275 277 276 276 277 277 277 279 279 281 281 285 280 279 279 280 282 282 283
254 255 256 258 259 261 261 263 264 265 266 266 267 268 268 268 270 271 272 273 274 273 273 275 276 278 279 278 282 279 280 280 282 281 284 282 281 283
254 255 256 257 259 261 262 262 263 265 267 268 268 269 270 271 270 270 273 275 272 274 274 276 278 277 277 277 277 276 278 279 279 280 279 280 280 278
257 257 258 259 259 261 262 262 262 263 264 265 266 267 269 272 269 270 272 271 272 272 272 273 273 278 281 280 276 278 276 277 279 282 280 280 282 280
258 258 258 259 260 260 261 263 263 264 265 266 267 267 269 267 268 271 272 271 272 272 271 276 277 277 273 278 277 281 282 276 279 279 284 282 282 282